Change the Weather History Date:

Sunday, November 11, 2012

  Actual Average Record
Temperature  
Mean Temperature 45 °F 36 °F  
Max Temperature 66 °F 44 °F 66 °F (1912)
Min Temperature 23 °F 29 °F -6 °F (1986)
Degree Days  
Heating Degree Days 20 29  
Month to date heating degree days 236 284  
Since 1 July heating degree days 901 1020  
Cooling Degree Days 0 0  
Month to date cooling degree days 0 0  
Year to date cooling degree days 888 585  
Moisture  
Dew Point 33 °F    
Average Humidity 71    
Maximum Humidity 85    
Minimum Humidity 56    
Precipitation  
Precipitation 0.27 in 0.06 in 1.78 in (1940)
Month to date precipitation 0.50 0.72  
Year to date precipitation 23.05 30.60  
Snow  
Snow T in 0.20 in 2.00 in (1893)
Month to date snowfall T 1.3  
Since 1 July snowfall T 2.1  
Snow Depth 0.00 in    
Sea Level Pressure  
Sea Level Pressure 29.75 in    
Wind  
Wind Speed 16 mph (WNW)    
Max Wind Speed 32 mph    
Max Gust Speed 44 mph    
Visibility 8 miles    
Events Rain    
T = Trace of Precipitation, MM = Missing Value Source: NWS Daily Summary

Daily Weather History Graph

Daily Weather History Graph

Search for Another Location

Airport or City:

Trip Planner

Search our weather history database for the weather conditions in past years. The results will help you decide how hot, cold, wet, or windy it might be!

Date:

Astronomy

Nov. 11, 2012 Rise Set
Actual Time 7:00 AM CST 4:47 PM CST
Civil Twilight 6:29 AM CST 5:18 PM CST
Nautical Twilight 5:54 AM CST 5:52 PM CST
Astronomical Twilight 5:20 AM CST 6:26 PM CST
Moon 4:10 AM CST (11/11) 3:14 PM CST (11/11)
Length of Visible Light 10h 49m
Length of Day
9h 47m
Waning Crescent, 7% of the Moon is Illuminated
Nov 11
Waning Crescent
Nov 13
New
Nov 20
First Quarter
Nov 28
Full
Dec 6
Last Quarter

Hourly Weather History & Observations

Time (CST) Temp. Windchill Dew Point Humidity Pressure Visibility Wind Dir Wind Speed Gust Speed Precip Events Conditions
12:54 AM 63.0 °F - 52.0 °F 67% 29.61 in 10.0 mi SSW 20.7 mph - 0.00 in   Overcast
1:54 AM 62.1 °F - 51.1 °F 67% 29.61 in 10.0 mi South 12.7 mph - 0.00 in   Overcast
2:54 AM 60.1 °F - 52.0 °F 75% 29.64 in 10.0 mi South 12.7 mph - 0.00 in Rain Light Rain
3:47 AM 57.2 °F - 51.8 °F 82% 29.66 in 10.0 mi SW 11.5 mph - 0.03 in   Overcast
3:54 AM 57.9 °F - 52.0 °F 81% 29.65 in 10.0 mi South 10.4 mph - 0.03 in   Overcast
4:29 AM 59.0 °F - 51.8 °F 77% 29.64 in 10.0 mi South 12.7 mph - 0.00 in Rain Light Rain
4:54 AM 57.9 °F - 52.0 °F 81% 29.63 in 8.0 mi South 9.2 mph - 0.01 in Rain Light Rain
5:44 AM 55.4 °F - 51.8 °F 88% 29.64 in 9.0 mi WNW 19.6 mph - 0.02 in   Mostly Cloudy
5:51 AM 51.8 °F - 46.4 °F 82% 29.65 in 7.0 mi WNW 18.4 mph - 0.02 in   Mostly Cloudy
5:54 AM 51.1 °F - 46.0 °F 83% 29.64 in 7.0 mi WNW 16.1 mph - 0.02 in   Mostly Cloudy
6:01 AM 51.8 °F - 46.4 °F 82% 29.65 in 7.0 mi WNW 15.0 mph - N/A   Overcast
6:13 AM 48.2 °F - 44.6 °F 87% 29.65 in 1.8 mi NW 13.8 mph - N/A   Overcast
6:18 AM 48.2 °F - 44.6 °F 87% 29.65 in 0.8 mi NW 15.0 mph - N/A   Overcast
6:54 AM 46.0 °F 39.0 °F 42.1 °F 86% 29.69 in 0.5 mi WNW 17.3 mph - 0.00 in Rain Light Rain
7:33 AM 41.0 °F 33.5 °F 37.4 °F 87% 29.69 in 9.0 mi NW 13.8 mph - 0.00 in Rain Light Rain
7:54 AM 39.9 °F 31.8 °F 36.0 °F 86% 29.70 in 8.0 mi NW 15.0 mph - 0.01 in Rain Light Rain
8:19 AM 39.2 °F 30.2 °F 35.6 °F 87% 29.72 in 10.0 mi WNW 17.3 mph - 0.02 in Rain Light Rain
8:42 AM 39.2 °F 31.2 °F 33.8 °F 81% 29.75 in 2.5 mi WNW 13.8 mph - 0.09 in Rain Rain
8:54 AM 37.9 °F 29.2 °F 33.1 °F 83% 29.76 in 2.5 mi NW 15.0 mph 23.0 mph 0.10 in Rain Light Rain
9:02 AM 37.4 °F 28.2 °F 33.8 °F 87% 29.75 in 6.0 mi WNW 16.1 mph - 0.00 in Rain Rain
9:27 AM 37.4 °F 27.5 °F 33.8 °F 87% 29.73 in 2.5 mi NW 18.4 mph - N/A Rain Light Rain
9:37 AM 35.6 °F 25.5 °F 32.0 °F 87% 29.71 in 6.0 mi NW 17.3 mph - 0.07 in Rain Light Rain
9:54 AM 36.0 °F 26.0 °F 30.9 °F 82% 29.74 in 10.0 mi NW 17.3 mph - 0.07 in Rain Light Rain
10:14 AM 35.6 °F 27.5 °F 30.2 °F 81% 29.73 in 9.0 mi NW 11.5 mph - 0.01 in Rain Light Rain
10:54 AM 34.0 °F 22.7 °F 30.0 °F 85% 29.77 in 10.0 mi WNW 19.6 mph - 0.03 in   Overcast
11:42 AM 33.8 °F 23.5 °F 28.4 °F 81% 29.75 in 2.5 mi WNW 16.1 mph - N/A   Overcast
11:50 AM 33.8 °F 23.5 °F 28.4 °F 81% 29.73 in 6.0 mi NW 16.1 mph - N/A   Haze
11:54 AM 33.8 °F 24.8 °F 28.4 °F 81% 29.73 in 9.0 mi NW 12.7 mph - N/A   Overcast
12:16 PM 33.8 °F 23.9 °F 28.4 °F 81% 29.74 in 10.0 mi NW 15.0 mph - N/A   Overcast
12:33 PM 33.8 °F 24.3 °F 28.4 °F 81% 29.76 in 10.0 mi WNW 13.8 mph - N/A   Overcast
12:54 PM 33.1 °F 23.0 °F 27.0 °F 78% 29.77 in 10.0 mi NW 15.0 mph - N/A   Overcast
1:01 PM 33.8 °F 23.5 °F 26.6 °F 75% 29.76 in 7.0 mi WNW 16.1 mph - N/A   Overcast
1:15 PM 32.0 °F 20.8 °F 28.4 °F 87% 29.76 in 2.5 mi WNW 17.3 mph - 0.00 in Rain Light Freezing Rain
1:22 PM 32.0 °F 21.2 °F 28.4 °F 87% 29.74 in 2.0 mi WNW 16.1 mph - 0.00 in Rain Light Freezing Rain
1:44 PM 32.0 °F 20.5 °F 26.6 °F 80% 29.74 in 4.0 mi WNW 18.4 mph - 0.00 in Rain Light Freezing Rain
1:54 PM 32.0 °F 20.8 °F 27.0 °F 82% 29.77 in 5.0 mi WNW 17.3 mph - 0.00 in Rain Light Freezing Rain
2:06 PM 32.0 °F 20.8 °F 26.6 °F 80% 29.74 in 4.0 mi WNW 17.3 mph - 0.00 in   Haze
2:13 PM 32.0 °F 20.1 °F 26.6 °F 80% 29.75 in 8.0 mi NW 19.6 mph 23.0 mph 0.00 in   Overcast
2:54 PM 30.9 °F 19.4 °F 25.0 °F 79% 29.79 in 10.0 mi WNW 17.3 mph 25.3 mph 0.00 in   Overcast
3:54 PM 30.9 °F 19.4 °F 24.1 °F 76% 29.81 in 9.0 mi WNW 17.3 mph 24.2 mph N/A   Overcast
4:54 PM 30.0 °F 17.9 °F 23.0 °F 75% 29.83 in 10.0 mi WNW 18.4 mph 26.5 mph N/A   Overcast
5:34 PM 28.4 °F 16.2 °F 21.2 °F 74% 29.86 in 10.0 mi West 17.3 mph 23.0 mph N/A   Overcast
5:54 PM 28.9 °F 16.5 °F 19.9 °F 69% 29.90 in 10.0 mi West 18.4 mph - N/A   Overcast
6:54 PM 28.9 °F 17.7 °F 19.9 °F 69% 29.91 in 10.0 mi WNW 15.0 mph 21.9 mph N/A   Overcast
7:54 PM 28.9 °F 17.3 °F 19.0 °F 67% 29.93 in 10.0 mi West 16.1 mph 28.8 mph N/A   Overcast
8:54 PM 27.0 °F 12.8 °F 16.0 °F 63% 29.97 in 10.0 mi West 21.9 mph 25.3 mph N/A   Overcast
9:54 PM 26.1 °F 12.0 °F 14.0 °F 60% 29.99 in 10.0 mi WNW 20.7 mph 27.6 mph N/A   Overcast
10:54 PM 24.1 °F 9.4 °F 12.9 °F 62% 29.99 in 10.0 mi West 20.7 mph 27.6 mph N/A   Overcast